[[{"header":{"parameterUnit":"m.s-1","parameterCategory":1,"la1":30.2991,"la2":30.254,"lo1":-89.0895,"lo2":-89.0444,"dy":0.0017,"dx":0.0017,"nx":28,"ny":28,"refTime":"2023-07-21T03:00:00:Z","depth":0,"parameterNumber":2,"parameterNumberName":"U-component_of_WINDS"},"data":[0,0,0,0,0,0,0,0,0,0,0,0,0,0,0,0,0,0,0,0,0,0,0,0,0,0,0,0,0,0,0,0,0,0,0,0,0,0,0,0,0,0,0,0,0,0,0,0,0,0,0,0,0,0,0,0,0,0,2.2073,2.2074,0,2.2153,2.2154,2.2155,2.2092,2.209,2.2087,2.2085,2.2166,2.2171,2.2175,0,0,0,0,0,0,0,0,0,0,0,0,0,2.1865,2.1869,2.2073,2.2074,2.2075,2.2153,2.2154,2.2155,2.2093,2.209,2.2086,2.2083,2.2164,2.217,2.2176,0,0,0,0,0,0,0,0,0,0,0,0,0,2.1951,2.1871,2.2073,2.2053,2.2053,2.2153,2.2154,2.2155,2.2094,2.209,2.2086,2.2082,2.2163,2.2169,2.2176,2.23,0,0,2.2198,2.2201,0,0,0,0,0,0,0,0,2.1947,2.1959,2.2055,2.2055,2.2054,2.2109,2.211,2.2204,2.2095,2.2078,2.2085,2.208,2.215,2.2158,2.2182,2.2303,2.2307,2.2198,2.2203,2.2206,2.2208,0,0,0,0,0,0,0,2.1941,2.1955,2.2105,2.2057,2.2056,2.204,2.2048,2.2128,2.2136,2.2079,2.2075,2.2085,2.2149,2.2175,2.2183,2.2308,2.2198,2.2204,2.2209,2.2211,2.2533,2.2537,0,0,0,0,0,0,2.1937,2.1951,2.2102,2.2107,2.1989,2.2047,2.2056,2.2095,2.2135,2.2137,2.2089,2.2082,2.2165,2.2175,2.2186,2.2331,2.2205,2.2212,2.2216,2.2529,2.2534,2.2539,0,0,0,0,0,0,2.1932,2.1951,2.2099,2.2028,2.2045,2.2055,2.21,2.2099,2.2125,2.2142,2.2143,2.2114,2.2162,2.2176,2.2271,2.2333,2.2215,2.2222,2.2524,2.2531,2.2537,2.2624,0,0,0,0,0,0,2.1927,2.195,2.1997,2.2029,2.2049,2.2184,2.2103,2.2103,2.2137,2.2129,2.2166,2.2168,2.216,2.2261,2.2278,2.2341,2.2227,2.2518,2.2527,2.2534,2.2616,2.2633,2.2648,0,0,0,0,0,2.192,2.2019,2.2,2.2018,2.2109,2.2188,2.2199,2.2188,2.2142,2.219,2.22,2.2167,2.2324,2.2272,2.229,2.2356,2.2514,2.2524,2.2534,2.2609,2.263,2.2647,0,0,0,0,0,0,2.1994,2.2023,2.2002,2.2115,2.2149,2.2177,2.2236,2.2211,2.2259,2.225,2.2235,2.2244,2.2344,2.2359,2.23,2.2476,2.2412,2.2426,2.2462,2.2482,2.2498,2.2491,2.2233,0,0,0,0,0,2.2023,2.2085,2.2107,2.2204,2.2223,2.2227,2.2261,2.2249,2.2284,2.2299,2.2316,2.2351,2.2408,2.2446,2.25,2.2618,2.2624,2.2672,2.2688,2.2701,2.2713,2.2775,2.2796,2.2571,2.2571,2.2571,0,0,2.2085,2.2108,2.2148,2.222,2.2245,2.2309,2.2239,2.231,2.2357,2.2309,2.24,2.2414,2.2452,2.2559,2.2607,2.2575,2.2777,2.2714,2.2724,2.2729,2.2787,2.2809,2.2828,2.2578,2.2577,2.2575,0,0,2.2229,2.2254,2.2336,2.2363,2.2402,2.2404,2.2424,2.2456,2.2463,2.2554,2.252,2.2575,2.2674,2.2702,2.2729,2.2884,2.2854,2.2901,2.2984,2.3045,2.3063,2.3078,2.3132,2.3151,2.2914,2.2914,2.2914,0,2.23,2.2395,2.2382,2.2455,2.2487,2.2447,2.253,2.2557,2.2612,2.2634,2.2598,2.2721,2.2744,2.2856,2.2893,2.2917,2.2939,2.2897,2.3061,2.3077,2.3091,2.3142,2.3162,2.2919,2.2919,2.2918,2.2918,0,2.248,2.2546,2.2608,2.2662,2.2701,2.2779,2.2777,2.2818,2.2804,2.2809,2.2902,2.2928,2.2985,2.3011,2.2998,2.3122,2.31,2.3063,2.2998,2.3118,2.3166,2.3185,2.2927,2.2925,2.2923,2.2922,0,0,2.2673,2.2718,2.2741,2.2764,2.2804,2.2855,2.293,2.2986,2.3021,2.306,2.3123,2.3207,2.3172,2.3203,2.3193,2.3246,2.3365,2.3202,2.3203,2.323,2.3501,2.3528,2.3551,2.3346,2.335,2.3353,2.3497,0,2.2817,2.2949,2.2939,2.3063,2.3124,2.3086,2.3152,2.3183,2.3191,2.3242,2.325,2.3309,2.326,2.3278,2.333,2.334,2.3419,2.3329,2.3403,2.3405,2.3393,2.3576,2.3605,2.374,2.3516,2.3519,2.3521,0,2.3004,2.3049,2.3179,2.3209,2.3234,2.3293,2.3343,2.3393,2.3428,2.3429,2.3464,2.3444,2.3519,2.3453,2.3556,2.3495,2.3524,2.3534,2.3539,2.3544,2.347,2.3585,2.3783,2.3803,2.3551,2.3548,2.3546,0,2.3129,2.3223,2.3312,2.3333,2.3371,2.3413,2.3431,2.3461,2.3495,2.3539,2.3561,2.3613,2.3641,2.3682,2.3676,2.3629,2.3781,2.3714,2.3783,2.3783,2.3816,2.3814,2.4021,2.3838,2.3837,2.3837,2.3836,0,2.3291,2.3372,2.3369,2.3424,2.3513,2.3501,2.3589,2.3601,2.3629,2.3685,2.3656,2.3709,2.37,2.3753,2.3749,2.3834,2.3847,2.385,2.3848,2.3852,2.3851,2.387,2.386,2.3842,2.3841,2.384,2.3839,0,2.3446,2.3448,2.3542,2.357,2.3579,2.3643,2.3666,2.3718,2.3722,2.3794,2.381,2.3817,2.3878,2.3877,2.3946,2.3943,2.4047,2.4035,2.4036,2.4033,2.4101,2.4094,2.4326,2.4355,2.4155,2.4157,2.4158,0,2.3549,2.361,2.3644,2.3679,2.3699,2.3757,2.3792,2.3782,2.3819,2.3862,2.3909,2.3967,2.4012,2.4111,2.4122,2.4175,2.4163,2.4241,2.4171,2.4172,2.4162,2.4158,2.4164,2.4254,2.4256,2.4258,2.426,0,2.373,2.3727,2.3778,2.383,2.3871,2.3911,2.3948,2.3979,2.3973,2.4016,2.4077,2.4113,2.4183,2.4241,2.4292,2.4309,2.4283,2.4282,2.43,2.4304,2.4302,2.4303,2.4072,2.4276,2.4274,2.4273,2.4272,2.4272,2.3861,2.3913,2.3944,2.4002,2.4028,2.4063,2.4112,2.4123,2.4175,2.4231,2.4222,2.4291,2.4323,2.4388,2.441,2.4463,2.4436,2.4463,2.4469,2.4476,2.4483,2.4294,2.4473,2.4472,2.4472,2.4471,2.4471,0,2.4039,2.4058,2.4111,2.4162,2.4207,2.418,2.4219,2.4258,2.4319,2.4351,2.4396,2.4467,2.4522,2.4538,2.4592,2.4631,2.4621,2.4645,2.4642,2.4646,2.4505,2.4483,2.4653,2.4653,2.4653,2.4653,2.4653,2.4653,2.4137,2.4223,2.4225,2.4323,2.4341,2.4408,2.4432,2.4464,2.4489,2.4569,2.4615,2.4625,2.465,2.4705,2.4755,2.4758,2.4778,2.4808,2.4806,2.4674,2.4656,2.4638,2.4618,2.4813,2.4813,2.4942,2.4943,2.4944]},{"header":{"parameterUnit":"m.s-1","parameterCategory":1,"la1":30.2991,"la2":30.254,"lo1":-89.0895,"lo2":-89.0444,"dy":0.0017,"dx":0.0017,"nx":28,"ny":28,"refTime":"2023-07-21T03:00:00:Z","depth":0,"parameterNumber":3,"parameterNumberName":"V-component_of_WINDS"},"data":[0,0,0,0,0,0,0,0,0,0,0,0,0,0,0,0,0,0,0,0,0,0,0,0,0,0,0,0,0,0,0,0,0,0,0,0,0,0,0,0,0,0,0,0,0,0,0,0,0,0,0,0,0,0,0,0,0,0,5.1134,5.1134,0,5.1129,5.1129,5.1129,5.1035,5.1032,5.103,5.1027,5.1022,5.1024,5.1026,0,0,0,0,0,0,0,0,0,0,0,0,0,5.1061,5.1063,5.1134,5.1134,5.1134,5.1129,5.1129,5.1129,5.1035,5.1032,5.1029,5.1026,5.1021,5.1024,5.1026,0,0,0,0,0,0,0,0,0,0,0,0,0,5.1078,5.1064,5.1134,5.1087,5.1082,5.1129,5.1129,5.1129,5.1036,5.1032,5.1028,5.1025,5.102,5.1023,5.1027,5.1119,0,0,5.1036,5.1038,0,0,0,0,0,0,0,0,5.1078,5.1081,5.1094,5.109,5.1085,5.1079,5.1101,5.1126,5.1036,5.1053,5.1027,5.1023,5.1044,5.1045,5.1052,5.1119,5.1118,5.1037,5.1038,5.104,5.1041,0,0,0,0,0,0,0,5.1077,5.1081,5.1132,5.1094,5.1089,5.1065,5.1064,5.1106,5.1069,5.1052,5.1045,5.1045,5.1041,5.1049,5.1051,5.1118,5.1036,5.1039,5.1041,5.1042,5.1258,5.1262,0,0,0,0,0,0,5.1082,5.1081,5.1132,5.1132,5.1072,5.1069,5.1068,5.1085,5.1068,5.1062,5.1049,5.1041,5.1045,5.1047,5.105,5.1155,5.104,5.1043,5.1045,5.1254,5.1259,5.1263,0,0,0,0,0,0,5.1081,5.1088,5.1133,5.1104,5.1108,5.1074,5.1094,5.1086,5.1094,5.1066,5.1059,5.1064,5.1043,5.1046,5.1102,5.1154,5.1044,5.1047,5.125,5.1256,5.1261,5.1367,0,0,0,0,0,0,5.1079,5.1088,5.1123,5.1106,5.111,5.1185,5.1098,5.1089,5.11,5.109,5.1078,5.1073,5.104,5.1098,5.1105,5.1156,5.105,5.1245,5.1252,5.1259,5.1359,5.1376,5.139,0,0,0,0,0,5.1077,5.1153,5.1125,5.1132,5.1153,5.1188,5.1191,5.1151,5.1105,5.1139,5.1121,5.1073,5.1148,5.1104,5.1112,5.1165,5.1241,5.125,5.1259,5.1352,5.1373,5.139,0,0,0,0,0,0,5.1177,5.115,5.1119,5.1192,5.1193,5.1172,5.1214,5.1175,5.1189,5.1179,5.113,5.1128,5.1191,5.1184,5.1136,5.1252,5.1186,5.1197,5.1254,5.1274,5.1289,5.1289,5.1052,0,0,0,0,0,5.1208,5.1239,5.1213,5.1281,5.1283,5.1249,5.1263,5.1232,5.1231,5.1231,5.1217,5.1218,5.1241,5.1257,5.1277,5.1358,5.1353,5.1398,5.1414,5.1427,5.1436,5.1476,5.1495,5.1291,5.1291,5.1291,0,0,5.1272,5.1261,5.1283,5.13,5.1298,5.133,5.125,5.1288,5.1311,5.1237,5.1288,5.1278,5.1276,5.1344,5.1373,5.134,5.1491,5.1438,5.1448,5.145,5.1487,5.1506,5.1523,5.1297,5.1296,5.1295,0,0,5.1403,5.1399,5.1453,5.1452,5.1449,5.1426,5.1439,5.1424,5.1414,5.1465,5.141,5.1437,5.1478,5.1478,5.1484,5.1615,5.1571,5.1623,5.1705,5.1744,5.176,5.1774,5.1819,5.1836,5.1633,5.1633,5.1633,0,5.1483,5.1529,5.1486,5.1527,5.1536,5.1471,5.1524,5.1525,5.1529,5.1536,5.1499,5.1548,5.1542,5.1609,5.1641,5.1648,5.1661,5.1623,5.1762,5.1775,5.1787,5.183,5.1847,5.1639,5.1638,5.1638,5.1637,0,5.1625,5.1659,5.1703,5.1707,5.1721,5.1769,5.1732,5.1751,5.172,5.1701,5.1753,5.1743,5.1759,5.1773,5.1744,5.1835,5.1814,5.177,5.1702,5.1814,5.1852,5.1868,5.1648,5.1646,5.1644,5.1642,0,0,5.182,5.1799,5.1816,5.1816,5.1808,5.1832,5.1877,5.1892,5.1908,5.1913,5.1948,5.1985,5.1943,5.195,5.1919,5.1955,5.2057,5.1905,5.1905,5.1932,5.2155,5.2187,5.2206,5.2028,5.2031,5.2034,5.2155,0,5.1945,5.2018,5.1981,5.2059,5.2088,5.2027,5.2065,5.2063,5.2047,5.2069,5.205,5.2076,5.2021,5.2024,5.2056,5.2037,5.21,5.2028,5.2059,5.206,5.2059,5.2227,5.2261,5.2375,5.217,5.2172,5.2174,0,5.2101,5.2111,5.2192,5.2176,5.2187,5.2222,5.2232,5.2255,5.2252,5.2237,5.2244,5.2205,5.2246,5.2181,5.2237,5.2189,5.2199,5.2192,5.2196,5.2195,5.2123,5.2229,5.2411,5.2427,5.2198,5.2196,5.2194,0,5.2231,5.2266,5.2318,5.2321,5.2304,5.233,5.2325,5.2318,5.2329,5.2339,5.2345,5.236,5.2367,5.2379,5.2345,5.2301,5.2405,5.2337,5.2393,5.2394,5.2416,5.2414,5.26,5.2427,5.2426,5.2426,5.2426,0,5.2373,5.2425,5.2376,5.2408,5.2463,5.242,5.2476,5.2464,5.2458,5.2486,5.2435,5.2463,5.2417,5.244,5.2413,5.2462,5.2467,5.2455,5.2447,5.2459,5.246,5.2463,5.2454,5.243,5.2429,5.2429,5.2428,0,5.2528,5.2497,5.255,5.253,5.2526,5.2568,5.255,5.2579,5.2559,5.2595,5.2601,5.2569,5.2594,5.2561,5.2582,5.2565,5.2631,5.2613,5.2632,5.2626,5.2682,5.2677,5.2875,5.2898,5.2712,5.2714,5.2715,0,5.2619,5.2657,5.2641,5.2656,5.2653,5.2679,5.2689,5.2648,5.2662,5.2661,5.2689,5.2709,5.2722,5.2764,5.2742,5.2758,5.2738,5.2806,5.274,5.275,5.2736,5.2734,5.2736,5.2819,5.2822,5.2823,5.2825,0,5.2785,5.2768,5.2785,5.2797,5.2812,5.282,5.2824,5.2839,5.2796,5.2813,5.2837,5.2848,5.2869,5.2888,5.2899,5.2892,5.2851,5.2846,5.2859,5.287,5.2879,5.2873,5.2667,5.2841,5.284,5.2839,5.2838,5.2837,5.2909,5.2939,5.2932,5.2953,5.2951,5.2956,5.2981,5.2964,5.2983,5.2996,5.2971,5.3001,5.2996,5.3005,5.3004,5.3027,5.2997,5.3017,5.3021,5.3026,5.3034,5.2878,5.3029,5.3028,5.3028,5.3027,5.3027,0,5.3069,5.3062,5.3081,5.3088,5.3104,5.3065,5.3067,5.3083,5.311,5.3109,5.3123,5.3149,5.3168,5.3149,5.3164,5.3186,5.3167,5.3191,5.3188,5.3187,5.3061,5.3047,5.3205,5.3205,5.3205,5.3205,5.3205,5.3205,5.3155,5.3202,5.3185,5.3231,5.3223,5.3251,5.3256,5.3259,5.3258,5.329,5.3305,5.3292,5.3284,5.3298,5.3313,5.3307,5.3314,5.3344,5.3331,5.3213,5.3196,5.3179,5.3165,5.3346,5.3347,5.3454,5.3455,5.3456]}]]